Voltar ao catálogo

LEGION 5

AtivoMilitarVLEO
NORAD 62900·PAYLOAD·🇺🇸 United States

Lançado Feb 4, 2025 de Cape Canaveral Space Force Station

Loading…

Próximas Passagens (próximas 24 horas)

TLE

AtualizadoSource: Space-Track

Época: Sep 14, 2026, 03:52 UTC

1 62900U 25025A   26257.16133023  .00002734  00000-0  15311-3 0  9992
2 62900  45.0013 184.3164 0007891 275.1993  84.7985 15.16071265 87998

Acompanhe LEGION 5 em tempo real com AllMySat

Download on the App Store